This demonstration page uses our WeatherBlox Daily Observations layout. Learn more.

36.17497, -115.13722

Hourly Observations for February 5, 2016

Temp ( °F °C ) Dew Point ( °F °C ) Humidity (%) Winds ( mph kmh ) Pressure ( in mb ) Visibility ( mi km ) Precip ( " mm )
12:53 am 00:53 Clear 42 5.6 24 -4.4 49 49 N 9 15 30.5 1033 10 16.0934 0 0
1:53 am 01:53 Clear 43 6.1 23 -5 45 45 N 6 9 30.51 1033 10 16.0934 0 0
2:53 am 02:53 Clear 40 4.4 23 -5 51 51 NW 12 19 30.51 1033 10 16.0934 0 0
3:53 am 03:53 Clear 41 5 23 -5 49 49 N 9 15 30.52 1034 10 16.0934 0 0
4:53 am 04:53 Clear 40 4.4 23 -5 51 51 NNW 8 13 30.53 1034 10 16.0934 0 0
5:53 am 05:53 Clear 39 3.9 23 -5 53 53 NNW 10 17 30.54 1034 10 16.0934 0 0
6:53 am 06:53 Sunny 38 3.3 23 -5 55 55 NW 5 7 30.58 1036 10 16.0934 0 0
7:53 am 07:53 Sunny 42 5.6 22 -5.6 45 45 NNW 5 7 30.59 1036 10 16.0934 0 0
8:53 am 08:53 Sunny 48 8.9 21 -6.1 34 34 N 12 19 30.58 1036 10 16.0934 0 0
9:53 am 09:53 Sunny 51 10.6 21 -6.1 31 31 NNE 12 19 30.59 1036 10 16.0934 0 0
10:53 am 10:53 Sunny 54 12.2 21 -6.1 28 28 NNE 9 15 30.58 1036 10 16.0934 0 0
11:53 am 11:53 Sunny 54 12.2 20 -6.7 26 26 Calm 30.55 1035 10 16.0934 0 0
12:53 pm 12:53 Sunny 54 12.2 21 -6.1 28 28 Calm 30.52 1034 10 16.0934 0 0
1:53 pm 13:53 Sunny 58 14.4 22 -5.6 25 25 E 5 7 30.5 1033 10 16.0934 0 0
2:53 pm 14:53 Sunny 58 14.4 21 -6.1 24 24 Calm 30.5 1033 10 16.0934 0 0
3:53 pm 15:53 Sunny 58 14.4 22 -5.6 25 25 ESE 6 9 30.48 1032 10 16.0934 0 0
4:53 pm 16:53 Sunny 57 13.9 23 -5 27 27 ESE 5 7 30.49 1032 10 16.0934 0 0
5:53 pm 17:53 Clear 55 12.8 24 -4.4 30 30 E 6 9 30.5 1033 10 16.0934 0 0
6:53 pm 18:53 Clear 53 11.7 22 -5.6 30 30 NE 5 7 30.51 1033 10 16.0934 0 0
7:53 pm 19:53 Clear 49 9.4 24 -4.4 38 38 NNW 6 9 30.53 1034 10 16.0934 0 0
8:53 pm 20:53 Clear 51 10.6 24 -4.4 35 35 N 9 15 30.52 1034 10 16.0934 0 0
9:53 pm 21:53 Clear 48 8.9 25 -3.9 41 41 N 8 13 30.51 1033 10 16.0934 0 0
10:53 pm 22:53 Clear 47 8.3 25 -3.9 42 42 NNW 8 13 30.52 1034 10 16.0934 0 0
11:53 pm 23:53 Clear 45 7.2 25 -3.9 46 46 N 9 15 30.52 1034 10 16.0934 0 0

Powered by AerisWeather